Карточка аэропорта UUWW

Внимание!
Информация на этой странице в стадии наполнения.
Если вы не увидели какой-то информации, или заметили неточность - пожалуйста сообщите нам!
Спасибо!
Команда RU-STAFF
Название аэропортаВнуково
Название аэропорта (англ.)Vnukovo
Превышение686 ft. (209.1 m.)
Координаты55°35.952', 37°16.386'
Высота перехода10000 ft
Эшелон переходаQNH>=1013hPa:FL110; QNH<1013hPa:FL120; QNH<977hPa:FL130
Коды ответчика2101-2117
Зона ОрВДМосква РПИ (UUWV)
Данные METARUUWW 181930Z 07003MPS CAVOK 12/03 Q1019 R06/000070 NOSIG
Проноз погоды (TAF)UUWW 181653Z 1818/1918 09003MPS CAVOK TX20/1912Z TN08/1902Z BECMG 1909/1912 16005MPS
NOTAMshow/hide NOTAM
AWOS   TABLE

Информация о ВПП

ВПП Длина ВПП (м.) Покрытие Курс ВПП Частота ILS
013060Асфальтобетон13111.7
193060Асфальтобетон193111.5
063500Цементобетон58108.9
243500Цементобетон238111.1

Диспетчерские позиции

Позывной Наименование органа УВД Частота
UUWW_TWRВнуково-Старт118.300
UUWW_TWRВнуково-Вышка122.300
UUWW_GNDВнуково-Руление120.450
UUWW_GNDВнуково-Руление121.700
UUWW_DELВнуково-Деливери131.800
UUWW_R_APPВнуково-Круг123.400
UUWW_R_APPВнуково-Круг126.000
UUWW_R_APPВнуково-Круг135.900



Спутниковое изображение